カタログに戻る

STARLINK-5913

運用中通信VLEO
NORAD 55937·PAYLOAD·🇺🇸 United States

打ち上げ Mar 17, 2023 から Vandenberg Space Force Base

Loading…

次のパス (今後24時間)

TLE

最新Source: CelesTrak SupGP

元期: Sep 14, 2026, 21:02 UTC

1 55937C 23037Z   26257.87687500  .00284190  00000+0  23170-1 0  2571
2 55937  70.0007 167.4902 0003177 269.5679 231.5783 14.99247586    11

AllMySatでSTARLINK-5913をリアルタイム追跡

Download on the App Store